Weather reports worldwide

Advertisment
Vlieland, Netherlands (6242): temperature & dewpoint: 07.08.2020 02:00:00 - 13.08.2020 02:00:00 (CEST)Vlieland, Netherlands (6242): temperature 5cm: 07.08.2020 02:00:00 - 13.08.2020 02:00:00 (CEST)Vlieland, Netherlands (6242): wind speed & gusts: 07.08.2020 02:00:00 - 13.08.2020 02:00:00 (CEST)Vlieland, Netherlands (6242): wind direction: 07.08.2020 02:00:00 - 13.08.2020 02:00:00 (CEST)Vlieland, Netherlands (6242): reduced air pressure: 07.08.2020 02:00:00 - 13.08.2020 02:00:00 (CEST)Vlieland, Netherlands (6242): visibility: 07.08.2020 02:00:00 - 13.08.2020 02:00:00 (CEST)
Date & Time tt [°C] td [°C] tt 5cm [°C] ff [km/h] ff [kn] fx [km/h] fx [kn] dd ppp [hPa] vv [km]
13.08.2020 02:00:00 - - - - - - - - - -
13.08.2020 01:00:00 - - - - - - - - - -
13.08.2020 00:00:00 - - - - - - - - - -
12.08.2020 23:00:00 - - - - - - - - - -
12.08.2020 22:00:00 - - - - - - - - - -
12.08.2020 21:00:00 - - - - - - - - - -
12.08.2020 20:00:00 - - - - - - - - - -
12.08.2020 19:00:00 - - - - - - - - - -
12.08.2020 18:00:00 - - - - - - - - - -
12.08.2020 17:00:00 - - - - - - - - - -
12.08.2020 16:00:00 - - - - - - - - - -
12.08.2020 15:00:00 - - - - - - - - - -
12.08.2020 14:00:00 - - - - - - - - - -
12.08.2020 13:00:00 - - - - - - - - - -
12.08.2020 12:00:00 - - - - - - - - - -
12.08.2020 11:00:00 - - - - - - - - - -
12.08.2020 10:00:00 - - - - - - - - - -
12.08.2020 09:00:00 - - - - - - - - - -
12.08.2020 08:00:00 - - - - - - - - - -
12.08.2020 07:00:00 - - - - - - - - - -
12.08.2020 06:00:00 - - - - - - - - - -
12.08.2020 05:00:00 - - - - - - - - - -
12.08.2020 04:00:00 - - - - - - - - - -
12.08.2020 03:00:00 - - - - - - - - - -
12.08.2020 02:00:00 - - - - - - - - - -
12.08.2020 01:00:00 - - - - - - - - - -
12.08.2020 00:00:00 - - - - - - - - - -
11.08.2020 23:00:00 - - - - - - - - - -
11.08.2020 22:00:00 - - - - - - - - - -
11.08.2020 21:00:00 - - - - - - - - - -
11.08.2020 20:00:00 - - - - - - - - - -
11.08.2020 19:00:00 - - - - - - - - - -
11.08.2020 18:00:00 - - - - - - - - - -
11.08.2020 17:00:00 - - - - - - - - - -
11.08.2020 16:00:00 - - - - - - - - - -
11.08.2020 15:00:00 - - - - - - - - - -
11.08.2020 14:00:00 - - - - - - - - - -
11.08.2020 13:00:00 - - - - - - - - - -
11.08.2020 12:00:00 - - - - - - - - - -
11.08.2020 11:00:00 - - - - - - - - - -
11.08.2020 10:00:00 - - - - - - - - - -
11.08.2020 09:00:00 - - - - - - - - - -
11.08.2020 08:00:00 - - - - - - - - - -
11.08.2020 07:00:00 - - - - - - - - - -
11.08.2020 06:00:00 - - - - - - - - - -
11.08.2020 05:00:00 - - - - - - - - - -
11.08.2020 04:00:00 - - - - - - - - - -
11.08.2020 03:00:00 - - - - - - - - - -
11.08.2020 02:00:00 - - - - - - - - - -
11.08.2020 01:00:00 - - - - - - - - - -
11.08.2020 00:00:00 - - - - - - - - - -
10.08.2020 23:00:00 - - - - - - - - - -
10.08.2020 22:00:00 - - - - - - - - - -
10.08.2020 21:00:00 - - - - - - - - - -
10.08.2020 20:00:00 - - - - - - - - - -
10.08.2020 19:00:00 - - - - - - - - - -
10.08.2020 18:00:00 - - - - - - - - - -
10.08.2020 17:00:00 - - - - - - - - - -
10.08.2020 16:00:00 - - - - - - - - - -
10.08.2020 15:00:00 - - - - - - - - - -
10.08.2020 14:00:00 - - - - - - - - - -
10.08.2020 13:00:00 - - - - - - - - - -
10.08.2020 12:00:00 - - - - - - - - - -
10.08.2020 11:00:00 - - - - - - - - - -
10.08.2020 10:00:00 - - - - - - - - - -
10.08.2020 09:00:00 - - - - - - - - - -
10.08.2020 08:00:00 22,0 20,0 22,2 22 12 - - E 1016,7 10
10.08.2020 07:00:00 20,6 19,1 20,1 22 12 25 14 E 1016,8 10
10.08.2020 06:00:00 20,1 19,0 19,6 18 10 25 14 E 1016,6 10
10.08.2020 05:00:00 19,4 17,9 19,1 16 9 22 12 ENE 1016,8 10
10.08.2020 04:00:00 19,5 17,2 18,9 15 8 25 14 ENE 1017,1 10
10.08.2020 03:00:00 19,7 17,0 19,3 22 12 32 18 ENE 1017,0 10
10.08.2020 02:00:00 19,4 16,9 19,1 22 12 32 18 ENE 1017,2 10
10.08.2020 01:00:00 19,5 16,9 19,0 22 12 29 16 ENE 1017,6 10
10.08.2020 00:00:00 19,1 17,1 18,7 22 12 29 16 NE 1017,9 10
09.08.2020 23:00:00 19,6 16,5 19,1 22 12 32 18 ENE 1018,0 10
09.08.2020 22:00:00 19,8 17,0 19,5 26 14 36 19 NE 1018,1 10
09.08.2020 21:00:00 20,1 17,6 19,9 29 16 40 21 NE 1017,8 10
09.08.2020 20:00:00 21,2 18,0 21,5 29 16 40 21 NE 1017,6 10
09.08.2020 19:00:00 22,4 18,4 23,3 29 16 40 21 NE 1017,5 10
09.08.2020 18:00:00 23,0 18,7 24,4 35 19 40 21 NNE 1018,1 10
09.08.2020 17:00:00 23,8 19,4 25,6 34 18 40 21 NNE 1018,5 10
09.08.2020 16:00:00 24,5 19,2 26,8 31 17 36 19 NNE 1018,7 10
09.08.2020 15:00:00 24,7 19,7 27,4 31 17 36 19 NNE 1019,0 10
09.08.2020 14:00:00 24,8 19,9 26,9 29 16 36 19 NNE 1019,5 10
09.08.2020 13:00:00 23,7 19,6 26,5 29 16 36 19 NNE 1019,8 10
09.08.2020 12:00:00 23,2 19,3 25,5 29 16 36 19 NE 1019,7 10
09.08.2020 11:00:00 24,3 20,1 26,4 22 12 29 16 NE 1019,8 10
09.08.2020 10:00:00 21,1 19,0 21,0 28 15 36 19 NE 1020,1 9
09.08.2020 09:00:00 21,2 19,0 22,2 29 16 36 19 NE 1020,2 10
09.08.2020 08:00:00 19,9 18,6 19,8 28 15 32 18 NE 1020,0 10
09.08.2020 07:00:00 19,3 18,4 19,0 26 14 32 18 NE 1019,9 6
09.08.2020 06:00:00 19,3 18,4 19,0 24 13 29 16 NNE 1019,9 6
09.08.2020 05:00:00 19,4 18,2 19,0 21 11 25 14 NE 1019,8 7
09.08.2020 04:00:00 19,4 18,2 19,2 22 12 29 16 NE 1019,8 5
09.08.2020 03:00:00 19,3 18,2 19,0 24 13 29 16 NE 1019,8 5
09.08.2020 02:00:00 19,4 17,9 18,8 21 11 25 14 NNE 1020,0 8
09.08.2020 01:00:00 19,4 18,4 18,7 21 11 22 12 NNE 1020,1 4,9
09.08.2020 00:00:00 19,5 16,0 18,9 15 8 18 10 ENE 1019,9 10
08.08.2020 23:00:00 20,1 14,9 19,7 16 9 22 12 ENE 1020,0 10
08.08.2020 22:00:00 20,7 16,6 19,7 11 6 14 8 ENE 1020,2 10
08.08.2020 21:00:00 21,3 17,5 21,4 11 6 25 14 NE 1020,1 10
08.08.2020 20:00:00 22,7 17,7 23,6 18 10 25 14 NNE 1019,9 10
08.08.2020 19:00:00 24,1 18,3 26,3 15 8 29 16 NNE 1020,0 10
08.08.2020 18:00:00 24,4 17,6 26,2 21 11 29 16 NNE 1019,9 10
08.08.2020 17:00:00 22,4 17,3 22,8 22 12 25 14 N 1020,5 10
08.08.2020 16:00:00 24,2 16,8 26,3 18 10 25 14 NNE 1020,4 10
08.08.2020 15:00:00 23,9 16,4 25,7 11 6 18 10 NNE 1020,4 10
08.08.2020 14:00:00 26,0 16,1 27,8 13 7 14 8 NE 1020,5 10
08.08.2020 13:00:00 24,7 17,2 27,3 11 6 22 12 NNE 1020,5 10
08.08.2020 12:00:00 27,0 18,6 28,8 8 4 11 6 NNE 1020,3 10
08.08.2020 11:00:00 26,5 18,5 29,8 9 5 11 6 ESE 1020,3 10
08.08.2020 10:00:00 26,8 18,9 29,9 4 2 11 6 - 1020,3 10
08.08.2020 09:00:00 24,6 19,8 24,8 8 4 11 6 SE 1020,0 10
08.08.2020 08:00:00 23,0 19,8 22,7 9 5 14 8 ESE 1019,8 10
08.08.2020 07:00:00 19,7 18,9 18,1 13 7 14 8 ESE 1019,6 9
08.08.2020 06:00:00 19,4 18,4 18,3 13 7 14 8 E 1019,3 9
08.08.2020 05:00:00 19,9 18,9 19,1 13 7 14 8 E 1019,2 10
08.08.2020 04:00:00 19,7 18,7 18,4 13 7 14 8 E 1019,1 10
08.08.2020 03:00:00 19,8 18,6 18,7 15 8 18 10 E 1019,2 10
08.08.2020 02:00:00 20,7 19,4 19,4 15 8 18 10 E 1019,3 10
08.08.2020 01:00:00 20,9 19,5 19,8 15 8 18 10 E 1019,5 10
08.08.2020 00:00:00 21,2 19,8 20,3 15 8 18 10 E 1019,4 10
07.08.2020 23:00:00 21,5 19,5 20,4 13 7 18 10 E 1019,7 10
07.08.2020 22:00:00 22,7 19,2 21,9 16 9 22 12 ENE 1019,6 10
07.08.2020 21:00:00 24,5 17,6 24,1 18 10 29 16 ENE 1019,2 10
07.08.2020 20:00:00 26,2 17,5 26,5 21 11 29 16 ENE 1019,0 10
07.08.2020 19:00:00 27,7 18,0 28,9 24 13 29 16 E 1019,1 10
07.08.2020 18:00:00 28,5 16,6 30,1 18 10 25 14 E 1019,4 10
07.08.2020 17:00:00 29,6 14,6 32,2 13 7 18 10 E 1019,7 10
07.08.2020 16:00:00 29,7 16,1 33,4 11 6 14 8 ESE 1020,0 10
07.08.2020 15:00:00 29,3 15,9 32,9 11 6 14 8 ESE 1020,1 10
07.08.2020 14:00:00 28,8 16,1 32,7 11 6 14 8 SE 1020,4 10
07.08.2020 13:00:00 27,0 17,4 31,0 15 8 18 10 SE 1020,5 10
07.08.2020 12:00:00 25,9 17,4 28,8 15 8 18 10 ESE 1020,7 10
07.08.2020 11:00:00 24,6 17,1 27,8 16 9 18 10 ESE 1020,5 10
07.08.2020 10:00:00 23,3 17,1 25,7 15 8 18 10 ESE 1020,4 10
07.08.2020 09:00:00 21,8 17,0 23,0 16 9 18 10 ESE 1020,4 10
07.08.2020 08:00:00 19,9 16,6 19,4 16 9 18 10 E 1020,2 10
07.08.2020 07:00:00 18,3 16,6 17,2 16 9 18 10 E 1020,0 10
07.08.2020 06:00:00 18,3 15,8 17,6 16 9 22 12 E 1019,7 10
07.08.2020 05:00:00 18,9 15,9 18,2 18 10 22 12 E 1019,7 10
07.08.2020 04:00:00 19,4 16,7 18,8 13 7 18 10 E 1020,0 10
07.08.2020 03:00:00 19,3 17,0 18,7 15 8 18 10 E 1020,3 10
07.08.2020 02:00:00 19,1 17,7 18,3 13 7 22 12 E 1020,5 10

tt = temperature
td = dewpoint
tt 5cm = temperature 5cm
ff = wind speed
fx = gusts
dd = wind direction
ppp = reduced air pressure
vv = visibility

Next stations